Regional Weather Roundup
Issued by NWS Newport/Morehead, NC

Home | Current Version | Previous Version | Text Only | Print | Product List | Glossary On
Versions: 1 2 3 4 5 6 7 8 9 10 11 12 13 14 15 16 17 18 19 20 21 22 23 24 25 26 27 28 29 30 31 32 33 34 35 36 37 38 39 40 41 42 43 44 45 46 47 48 49 50
000
ASUS42 KMHX 251725
RWRMHX
WEATHER ROUNDUP FOR EASTERN NORTH CAROLINA
NATIONAL WEATHER SERVICE NEWPORT/MOREHEAD CITY NC
100 PM EDT MON SEP 25 2017

NOTE: "FAIR" INDICATES FEW OR NO CLOUDS BELOW 12,000 FEET
WITH NO SIGNIFICANT WEATHER AND/OR OBSTRUCTIONS TO VISIBILITY

NCZ015>017-031-032-045>047-102-103-251800-
NORTH COAST

CITY           SKY/WX    TMP DP  RH WIND       PRES   REMARKS
EDENTON        CLOUDY    79  70  74 NE12G17   29.97F
ELIZABETH CITY CLOUDY    76  71  85 NE14      29.98S
KITTY HAWK     NOT AVBL
MANTEO         CLOUDY    74  69  84 NE16      29.95F

$$

NCZ045>047-081-094-103-104-251800-
CENTRAL COAST

CITY           SKY/WX    TMP DP  RH WIND       PRES   REMARKS
FRISCO         PTSUNNY   80  73  79 NE14G26   29.88F

$$

NCZ095-097-098-100-101-251800-
SOUTHERN COAST

CITY           SKY/WX    TMP DP  RH WIND       PRES   REMARKS
BEAUFORT       PTSUNNY   81  74  79 NE18G31   29.88F
CEDAR ISLAND   NOT AVBL
JACKSONVILLE   CLOUDY    81  72  74 N16       29.90F
PINEY ISLAND   FLURRIES N/A N/A N/A NE21G30   29.89
WILMINGTON     CLOUDY    81  71  71 N10       29.90F


$$

NCZ011>013-027>030-043-044-078>080-089-090>093-098-251800-
COASTAL PLAIN

CITY           SKY/WX    TMP DP  RH WIND       PRES   REMARKS
AHOSKIE        CLOUDY    77  68  74 NE9       29.98F
CLINTON        CLOUDY    76  70  82 N8        29.96F
ELIZABETHTOWN  NOT AVBL
GOLDSBORO      CLOUDY    78  73  83 NE15      29.95S
GREENVILLE     PTSUNNY   79  68  69 NE9       29.98S
HAVELOCK       CLOUDY    81  72  74 NE17      29.91F
KENANSVILLE    CLOUDY    77  68  73 N8        29.94F
KINSTON        CLOUDY    77  68  73 NE10      29.96S
NEW BERN       CLOUDY    80  71  74 N15       29.92F
RICHLANDS      CLOUDY    79  71  76 NE12      29.92F
ROCKY MOUNT    CLOUDY    77  69  76 NE10      29.99S
WASHINGTON     CLOUDY    76  69  79 NE9       29.96S
WHITEVILLE     CLOUDY    74  67  80 N7        29.94F

$$

AMZ130-135-150-152-154-156-158-170-250-252-270-ANZ085-086-088-633-658-670-251800-
MARINE OBSERVATIONS

STATION/POSITION TIME  TEMP    WIND        PRES    WAVE   SWELL
                       AIR SEA DIR/SP/G            HT/PER HT/PER
                 (UTC) (F)     (DEG/KT/KT) (MB)    (FT/S) (FT/S)
CHESAPEAKE LIGHT NOT AVBL
64 E VA BEACH    1650   71 70   50/ 16/ 19 1014.8   17/14  16/14
DUCK             1700   72 76   30/ 21/ 23 1014.2
2 E DUCK         1700      75                N/A     7/15   5/15
OREGON INLET     1700   74 76   20/ 17/ 21 1013.4
13E OREGON INLT  1648      75                N/A    11/14  11/14
HATTERAS CG      1700   76 77   40/ 15/ 26 1012.0
DIAMOND BUOY     1650   76 77   30/ 23/ 27 1010.3   12/14  10/14
CAPE LOOKOUT     1700   78      30/ 26/ 32 1011.2
BEAUFORT LAB     1700   79 75   20/ 14/ 21 1011.3
30 SE NEW RVR IN 1708   78      30/ 21/ 29 1010.4
30 SE NEW RVR IN NOT AVBL
27 SE WRIGHTSVLE 1708   78 80   50/ 21/ 27 1010.4
5 SE WRIGHTSVLE  1708   78 78   20/ 12/ 19 1011.5
225 S CAPE HAT   1650   81 81  360/ 37/ 47  994.3   21/10  11/13
41 SE CHARLESTON 1710   76 81   10/ 17/ 23 1011.5

$$




USA.gov is the U.S. government's official web portal to all federal, state and local government web resources and services.